TOURFACTS.DK  
Stats and Facts from Tour de France.

Tour de France 2019 starts in 347 days
  Riders   Stages   Teams   Summits   Yearly  


 
Search by year

After 2018 - Stage 14:
 15000 starters.
  5163 different riders.
  639 teams.
  2246 stages.
  456 restdays.
  441957.60 km.
  5678 abandonnees.


Top 3
GC
Christopher Froome86:20:55
Rigoberto Urán86:21:49
Romain Bardet86:23:15
Climb
Warren Barguil169 pt.
Primoz Roglic80 pt.
Thomas De Gendt64 pt.
Sprint
Michael Matthews359 pt.
André Greipel234 pt.
Edvald Boasson Hagen220 pt.
Youth
Simon Yates86:27:09
Louis Meintjes86:29:15
Emanuel Buchmann86:54:16
Facts from Tour de France 1974
  |   Stages.  |   Stage winners.  |   Days in yellow  |   Average speed.  |   Route.  |   Teams.  |   All riders.  |   Rookies.  |  

  |   Withdrawls.  |   GC.  |   Polka  |   Green  |   White  |   Summits. (In tour)  |   Miscellaneous.  |  

Stage 17 on July 16th. 1974
         Owning:    Eddy Merckx    
Pick a stage:  Pro 1 2 3 4 5 6a 6b 7 8a 8b 9 10 11 12 13 14 15 16 17 18 19a 19b 20 21a 21b 22
From: Saint-Lary-Soulan    To: La MongieDist:119.00 km.
Cat: 2Col d'AspinFRAJean-Pierre Danguillaume
12 points
 
Cat: 1Col du TourmaletFRAJean-Pierre Danguillaume
15 points
 

Average speed for all riders in stage:  28,637 km./hr.
    Place:Name:Team:Time:Km/h:
FRAJean-Pierre DanguillaumeFRAPeugeot-BP-Michelin03:58:44  +  00:00:00=29,908 
FRARaymond PoulidorFRAGan-Mercier-Hutchinson04:01:10  +  00:02:26=29,606 
ESPMariano MartinezFRASonolor-Gitanes04:01:16  +  00:02:32=29,594 
4 FRAAlain SantyFRAGan-Mercier-Hutchinson04:01:17  +  00:02:33=29,592 
5 ITAWladimiro PanizzaITABrooklyn04:01:33  +  00:02:49=29,559 
6 BELLucien Van ImpeFRASonolor-Gitanes04:01:35  +  00:02:51=29,555 
7 BELEddy MerckxITAMolteni04:01:52  +  00:03:08=29,520 
8 ESPVicente LopezESPKas-Kaskol04:01:53  +  00:03:09=29,518 
9 FRARaymond DelisleFRAPeugeot-BP-Michelin04:02:10  +  00:03:26=29,484 
10 PORJoaquim AgostinhoFRABic04:02:23  +  00:03:39=29,457 
11 ESPAndré RomeroFRAJobo-Lejeune04:02:23  +  00:03:39=29,457 
12 ESPMiguel LasaESPKas-Kaskol04:02:28  +  00:03:44=29,447 
13 ITAFausto BertoglioITABrooklyn04:02:36  +  00:03:52=29,431 
14 BELHerman Van SpringelBELMic-De Gribaldy-Ludo04:02:41  +  00:03:57=29,421 
15 COLAntonio MartosESPKas-Kaskol04:03:27  +  00:04:43=29,328 
16 BELEduard JanssensITAMolteni04:03:31  +  00:04:47=29,320 
17 ESPGonzalo AjaESPKas-Kaskol04:03:34  +  00:04:50=29,314 
18 FRARoger PingeonFRAJobo-Lejeune04:03:36  +  00:04:52=29,310 
19 FRABernard LabourdetteFRABic04:03:42  +  00:04:58=29,298 
20 ITAGiancarlo BelliniITABrooklyn04:04:15  +  00:05:31=29,232 
21 FRAJean-Claude MisacFRAMerlin Plage-Flandria04:04:37  +  00:05:53=29,189 
22 BELWilly Van NesteFRASonolor-Gitanes04:04:39  +  00:05:55=29,185 
23 ESPJuan ZuranoESPLa Casera-Peña Bahamontes04:04:48  +  00:06:04=29,167 
24 NEDGerrie KnetemannFRAGan-Mercier-Hutchinson04:05:15  +  00:06:31=29,113 
25 BELJoseph BruyereITAMolteni04:05:15  +  00:06:31=29,113 
26 ESPJosé PesarrodonaESPKas-Kaskol04:05:17  +  00:06:33=29,109 
27 ENGMichael WrightFRASonolor-Gitanes04:05:20  +  00:06:36=29,103 
28 FRAMichel PerinFRAGan-Mercier-Hutchinson04:05:26  +  00:06:42=29,091 
29 FRASylvain VasseurFRABic04:05:38  +  00:06:54=29,068 
30 FRAFerdinand JulienFRASonolor-Gitanes04:05:40  +  00:06:56=29,064 
31 FRABernard BourreauFRAPeugeot-BP-Michelin04:05:49  +  00:07:05=29,046 
32 FRAJoël MillardFRAMerlin Plage-Flandria04:05:52  +  00:07:08=29,040 
33 ESPAntonio MenendezESPKas-Kaskol04:06:09  +  00:07:25=29,007 
34 ITAArturo PecchielanITABrooklyn04:06:10  +  00:07:26=29,005 
35 BELJos De SchoenmaeckerITAMolteni04:06:14  +  00:07:30=28,997 
36 ESPAndrês OlivaESPLa Casera-Peña Bahamontes04:06:24  +  00:07:40=28,977 
37 BELLudo DelcroixITAMolteni04:06:29  +  00:07:45=28,967 
38 NEDWim PrinsenNLDFrisol-Flair Plastics04:06:31  +  00:07:47=28,964 
39 ESPLuis ZuberoESPKas-Kaskol04:06:40  +  00:07:56=28,946 
40 FRARégis OvionFRAPeugeot-BP-Michelin04:06:43  +  00:07:59=28,940 
41 NEDFedor Iwan Den HertogNLDFrisol-Flair Plastics04:06:48  +  00:08:04=28,930 
42 BELRonald De WitteBELCarpenter Confortluxe-Flandria04:07:01  +  00:08:17=28,905 
43 FRACharly RouxelFRAPeugeot-BP-Michelin04:07:31  +  00:08:47=28,847 
44 NEDHenk PrinsenNLDFrisol-Flair Plastics04:07:32  +  00:08:48=28,845 
45 FRARoland BerlandFRABic04:07:35  +  00:08:51=28,839 
46 FRAFrancis CampanerFRAJobo-Lejeune04:07:46  +  00:09:02=28,817 
47 BELGeorges PintensBELMic-De Gribaldy-Ludo04:07:48  +  00:09:04=28,814 
48 BELMarc LievensITAMolteni04:07:56  +  00:09:12=28,798 
49 ESPDamaso TorresESPLa Casera-Peña Bahamontes04:07:58  +  00:09:14=28,794 
50 ESPDomingo PerurenaESPKas-Kaskol04:08:02  +  00:09:18=28,786 
51 BELMarc DemeyerBELCarpenter Confortluxe-Flandria04:08:04  +  00:09:20=28,783 
52 NEDGerard VianenFRAGan-Mercier-Hutchinson04:08:04  +  00:09:20=28,783 
53 NEDGerben KarstensFRABic04:08:07  +  00:09:23=28,777 
54 ESPJosé AbilleiraESPLa Casera-Peña Bahamontes04:08:13  +  00:09:29=28,765 
55 FRAJosé CatieauFRABic04:08:14  +  00:09:30=28,763 
56 ENGBarry HobanFRAGan-Mercier-Hutchinson04:08:19  +  00:09:35=28,754 
57 FRAJean-Pierre GenetFRAGan-Mercier-Hutchinson04:08:19  +  00:09:35=28,754 
58 BELGustaaf Van RoosbroeckBELMic-De Gribaldy-Ludo04:08:28  +  00:09:44=28,736 
59 BELWilfried WesemaelBELMic-De Gribaldy-Ludo04:08:30  +  00:09:46=28,732 
60 ESPCarlos MeleroESPKas-Kaskol04:08:32  +  00:09:48=28,729 
61 FRAAndré MolletFRAPeugeot-BP-Michelin04:08:37  +  00:09:53=28,719 
62 FRAChristian BlainFRAJobo-Lejeune04:08:55  +  00:10:11=28,684 
63 FRARobert MintkiewiczFRASonolor-Gitanes04:09:12  +  00:10:28=28,652 
64 FRAChristian RaymondFRAGan-Mercier-Hutchinson04:09:31  +  00:10:47=28,615 
65 BELVictor Van SchilITAMolteni04:09:40  +  00:10:56=28,598 
66 FRAJean-Jacques SanquerFRAMerlin Plage-Flandria04:09:41  +  00:10:57=28,596 
67 BELJan Van De WieleBELMic-De Gribaldy-Ludo04:09:46  +  00:11:02=28,587 
68 FRAClaude MagniFRAJobo-Lejeune04:09:47  +  00:11:03=28,585 
69 BELJoseph SpruytITAMolteni04:10:42  +  00:11:58=28,480 
70 BELJoseph HuysmansITAMolteni04:12:47  +  00:14:03=28,246 
71 FRAJacques EsclassanFRAPeugeot-BP-Michelin04:14:56  +  00:16:12=28,007 
72 FRAAlain CiganaFRAJobo-Lejeune04:15:42  +  00:16:58=27,923 
73 BELNoël VancloosterBELMic-De Gribaldy-Ludo04:16:00  +  00:17:16=27,891 
74 BELWilly TeirlinckFRASonolor-Gitanes04:16:00  +  00:17:16=27,891 
75 BELFrans Van LooyBELCarpenter Confortluxe-Flandria04:16:00  +  00:17:16=27,891 
76 FRAJean-Pierre GuillemotFRAJobo-Lejeune04:16:00  +  00:17:16=27,891 
77 NEDPiet Van KatwijkNLDFrisol-Flair Plastics04:16:00  +  00:17:16=27,891 
78 ITAGianni Di LorenzoITABrooklyn04:16:00  +  00:17:16=27,891 
79 BELFrans MintjensITAMolteni04:16:00  +  00:17:16=27,891 
80 ESPFernando PlazaESPLa Casera-Peña Bahamontes04:16:00  +  00:17:16=27,891 
81 FRABernard CroyetFRABic04:16:00  +  00:17:16=27,891 
82 FRAJacky MouriouxFRAGan-Mercier-Hutchinson04:16:00  +  00:17:16=27,891 
83 FRAGerard MoneyronFRAMerlin Plage-Flandria04:16:00  +  00:17:16=27,891 
84 FRADaniel DucreuxFRAJobo-Lejeune04:16:00  +  00:17:16=27,891 
85 FRARaymond RiotteFRAPeugeot-BP-Michelin04:16:00  +  00:17:16=27,891 
86 BELArthur Van de VyverBELCarpenter Confortluxe-Flandria04:16:00  +  00:17:16=27,891 
87 FRAAlain NoguesFRASonolor-Gitanes04:16:00  +  00:17:16=27,891 
88 BELPatrick SercuITABrooklyn04:16:00  +  00:17:16=27,891 
89 BELAndré DierickxFRAMerlin Plage-Flandria04:16:00  +  00:17:16=27,891 
90 FRAJacques BotherelFRASonolor-Gitanes04:16:00  +  00:17:16=27,891 
91 BELDirk BaertBELMic-De Gribaldy-Ludo04:16:00  +  00:17:16=27,891 
92 FRAJean-Luc MolinerisFRABic04:16:00  +  00:17:16=27,891 
93 FRARegis DelepineFRAMerlin Plage-Flandria04:16:00  +  00:17:16=27,891 
94 ITAAldo ParecchiniITABrooklyn04:16:00  +  00:17:16=27,891 
95 FRADaniel RebillardFRAMerlin Plage-Flandria04:16:00  +  00:17:16=27,891 
96 FRACyrille GuimardFRAMerlin Plage-Flandria04:16:00  +  00:17:16=27,891 
97 FRAAlain VasseurFRABic04:16:00  +  00:17:16=27,891 
98 AUSDonald AllanNLDFrisol-Flair Plastics04:16:00  +  00:17:16=27,891 
99 ITAValerio LualdiITABrooklyn04:16:00  +  00:17:16=27,891 
100 ESPJesus ManzanequeESPLa Casera-Peña Bahamontes04:16:00  +  00:17:16=27,891 
101 FRAGuy SibilleFRAPeugeot-BP-Michelin04:16:00  +  00:17:16=27,891 
102 BELDaniel VerplanckeBELCarpenter Confortluxe-Flandria04:16:00  +  00:17:16=27,891 
103 BELRonny VanmarckeBELMic-De Gribaldy-Ludo04:16:00  +  00:17:16=27,891 
104 FRAMichel CorollerFRAMerlin Plage-Flandria04:16:00  +  00:17:16=27,891 
105 FRABernard MassonFRAJobo-Lejeune04:16:00  +  00:17:16=27,891 
106 ITALorenzo AlaimoNLDFrisol-Flair Plastics04:18:12  +  00:19:28=27,653 

Withdrawls: 1
 
Rider
Team
Reason
103  FRAJean-Claude BlocherFRAJobo-LejeuneExceeded time limit

Todays birthdays.

1887  Donald Kirkham
1889  Théodore Abada
1911  Guillaume Chavard
1912  Jean Fontenay
1913  Fabien Galateau
1930  Roger Hassenforder
1930  Richard Van Genechten
1936  Philippe Gaudrillet
1937  Joseph Novales
1954  Hans-Peter Jakst
1960  Manuel Ramos
1973  David Etxebarria
1974  Rik Verbrugghe
1976  Jörg Jaksche




Visits: